This is the latest recevied weather packets stored in our database for station/object KD7JB. If no packets are shown the sender has not sent any weather packets the latest 10 day(s).
| Time | Temp. | Humidity | Pressure | Rain* | Wind** | Luminosity | Snow |
|---|---|---|---|---|---|---|---|
| 1777473721 | 8.33° C | 65% | 1183.1 hPa | 0 mm | - | 175 W/m² | - |
| 1777473417 | 8.33° C | 65% | 1182.9 hPa | 0 mm | - | 160 W/m² | - |
| 1777473113 | 7.78° C | 65% | 1183.1 hPa | 0 mm | - | 146 W/m² | - |
| 1777472809 | 7.78° C | 65% | 1183.1 hPa | 0 mm | - | 133 W/m² | - |
| 1777472506 | 7.78° C | 66% | 1182.8 hPa | 0 mm | - | 120 W/m² | - |
| 1777472203 | 7.78° C | 66% | 1182.9 hPa | 0 mm | - | 107 W/m² | - |
| 1777471898 | 7.22° C | 67% | 1182.7 hPa | 0 mm | - | 96 W/m² | - |
| 1777471596 | 7.22° C | 68% | 1182.9 hPa | 0 mm | - | 85 W/m² | - |
| 1777471293 | 7.22° C | 68% | 1182.6 hPa | 0 mm | - | 65 W/m² | - |
| 1777470988 | 6.67° C | 69% | 1182.7 hPa | 0 mm | - | 35 W/m² | - |
| 1777470686 | 6.67° C | 69% | 1182.8 hPa | 0 mm | - | 32 W/m² | - |
| 1777470381 | 6.67° C | 70% | 1182.7 hPa | 0 mm | - | 31 W/m² | - |
| 1777470079 | 6.67° C | 70% | 1182.5 hPa | 0 mm | - | 41 W/m² | - |
| 1777469775 | 6.11° C | 70% | 1182.7 hPa | 0 mm | - | 34 W/m² | - |
| 1777469471 | 6.11° C | 71% | 1182.6 hPa | 0 mm | - | 28 W/m² | - |
| 1777469165 | 6.11° C | 72% | 1182.5 hPa | 0 mm | - | 24 W/m² | - |
| 1777468865 | 5.56° C | 72% | 1182.5 hPa | 0 mm | - | 21 W/m² | - |
| 1777468562 | 5.56° C | 72% | 1182.5 hPa | 0 mm | - | 18 W/m² | - |
| 1777468258 | 5.56° C | 73% | 1182.5 hPa | 0 mm | - | 15 W/m² | - |
| 1777467955 | 5.56° C | 74% | 1182.5 hPa | 0 mm | - | 12 W/m² | - |
| 1777467650 | 5° C | 74% | 1182.6 hPa | 0 mm | - | 9 W/m² | - |
| 1777467346 | 5.56° C | 74% | 1182.5 hPa | 0 mm | - | 7 W/m² | - |
| 1777467043 | 5° C | 74% | 1182.4 hPa | 0 mm | - | 5 W/m² | - |
| 1777466740 | 5° C | 75% | 1182.2 hPa | 0 mm | - | 3 W/m² | - |
| 1777466437 | 5° C | 74% | 1182.3 hPa | 0 mm | - | 2 W/m² | - |
* Rain latest hour (hover to see other rain measurements)
** Current wind speed in m/s (hover to see current wind gust speed)